This is the latest recevied weather packets stored in our database for station/object OE3EMC-13. If no packets are shown the sender has not sent any weather packets the latest 1 day(s).
| Time | Temp. | Humidity | Pressure | Rain* | Wind** | Luminosity | Snow |
|---|---|---|---|---|---|---|---|
| 1778020392 | 10.56° C | 82% | 1100 hPa | 0 mm | 0.45 m/s, 337° | - | - |
| 1778019793 | 10.56° C | 82% | 1100 hPa | 0 mm | 0.45 m/s, 337° | - | - |
| 1778019192 | 11.11° C | 82% | 1100 hPa | 0 mm | 1.34 m/s, 45° | - | - |
| 1778018593 | 11.11° C | 82% | 1100 hPa | 0 mm | 1.34 m/s, 45° | - | - |
| 1778017993 | 11.67° C | 83% | 1100 hPa | 0 mm | 1.34 m/s, 45° | - | - |
| 1778017392 | 11.67° C | 83% | 1100 hPa | 0 mm | 1.34 m/s, 45° | - | - |
| 1778016792 | 12.22° C | 79% | 1100 hPa | 0 mm | 1.34 m/s, 337° | - | - |
| 1778016192 | 12.22° C | 79% | 1100 hPa | 0 mm | 1.34 m/s, 337° | - | - |
| 1778015591 | 12.78° C | 74% | 1100 hPa | 0 mm | 1.79 m/s, 67° | - | - |
| 1778014993 | 12.78° C | 74% | 1100 hPa | 0 mm | 1.79 m/s, 67° | - | - |
| 1778014391 | 13.33° C | 73% | 1100 hPa | 0 mm | 2.24 m/s, 90° | - | - |
| 1778013791 | 13.33° C | 73% | 1100 hPa | 0 mm | 2.24 m/s, 90° | - | - |
| 1778013191 | 13.89° C | 69% | 1100 hPa | 0 mm | 2.68 m/s, 292° | - | - |
| 1778012592 | 13.89° C | 69% | 1100 hPa | 0 mm | 2.68 m/s, 292° | - | - |
| 1778011990 | 15° C | 64% | 1100 hPa | 0 mm | 1.79 m/s, 90° | - | - |
| 1778011390 | 15° C | 64% | 1100 hPa | 0 mm | 1.79 m/s, 90° | - | - |
| 1778010790 | 15.56° C | 61% | 1100 hPa | 0 mm | 2.24 m/s, 45° | - | - |
| 1778010191 | 15.56° C | 61% | 1100 hPa | 0 mm | 2.24 m/s, 45° | - | - |
| 1778009590 | 15.56° C | 57% | 1100 hPa | 0 mm | 1.79 m/s, 360° | - | - |
| 1778008991 | 15.56° C | 57% | 1100 hPa | 0 mm | 1.79 m/s, 360° | - | - |
| 1778008390 | 15.56° C | 54% | 1100 hPa | 0 mm | 0.89 m/s, 360° | - | - |
| 1778007790 | 15.56° C | 54% | 1100 hPa | 0 mm | 0.89 m/s, 360° | - | - |
| 1778007190 | 16.11° C | 51% | 1100 hPa | 0 mm | 0.89 m/s, 67° | - | - |
| 1778006591 | 16.11° C | 51% | 1100 hPa | 0 mm | 0.89 m/s, 67° | - | - |
| 1778005995 | 17.78° C | 46% | 1100 hPa | 0 mm | 0.45 m/s, 22° | - | - |
* Rain latest hour (hover to see other rain measurements)
** Current wind speed in m/s (hover to see current wind gust speed)